Wind_Speed
8 7 7 6 6 6 5 5 5 5 5 5 5 5 4 5 5 5 4 5 5 5 5 4 4 5 5 5 6 6 6 6 6 6 6 6 6 6 6 6 6 6 6 6
8 8 7 7 7 6 7 7 6 6 6 6 5 4 4 4 5 5 5 5 5 5 5 5 6 5 5 6 6 6 7 7 7 7 6 6 6 6 7 6 6 7 7 7
8 8 8 8 8 8 7 7 7 6 6 6 5 4 4 4 4 5 4 5 6 6 5 6 6 6 6 6 6 7 7 7 8 8 7 7 7 7 7 7 7 7 8 8
9 9 9 8 8 8 7 7 8 8 7 7 6 4 4 4 4 4 5 6 6 5 5 6 6 6 6 7 7 8 8 8 8 8 8 8 8 8 8 8 8 8 8 9
10 10 10 10 9 9 8 8 8 8 7 7 6 6 4 4 4 4 5 6 7 6 6 6 7 7 7 8 8 8 8 9 8 8 9 9 9 9 9 9 9 9 9 9
11 11 11 10 10 9 8 8 8 8 8 8 7 6 4 5 5 5 6 6 7 7 7 7 8 8 8 8 8 8 9 9 9 9 9 10 10 10 10 10 10 10 10 10
11 12 11 11 10 10 9 9 9 9 9 9 9 8 6 6 6 6 7 7 8 8 8 8 8 9 9 9 9 10 10 10 10 10 10 10 11 11 11 11 11 11 11 11
12 12 11 11 11 10 10 10 11 11 10 10 10 10 8 8 8 8 7 8 8 9 8 8 8 9 9 9 10 10 10 10 10 10 10 10 11 11 11 12 12 12 11 11
12 12 11 12 12 12 11 11 11 12 12 12 11 11 10 10 9 9 9 9 9 9 9 9 9 9 9 9 10 10 10 10 10 10 10 10 11 11 12 12 12 11 11 11
13 12 11 11 12 12 11 11 12 12 13 13 11 9 9 9 9 10 10 9 9 10 10 10 10 11 10 10 11 11 11 11 11 11 11 11 12 12 12 12 12 12 12 12
14 13 12 12 12 12 12 13 13 13 13 12 11 9 10 11 11 10 11 11 11 12 11 11 11 11 11 11 11 12 12 12 12 12 12 12 12 13 13 12 12 12 13 13
14 14 14 13 13 13 14 14 14 14 13 14 14 12 12 13 13 12 12 12 13 12 12 11 11 12 12 12 12 12 13 13 13 13 13 13 13 13 13 13 13 13 14 14
15 15 15 14 14 15 15 15 15 15 16 16 16 14 13 14 14 13 13 13 13 12 12 13 13 13 13 14 14 14 14 14 14 15 15 15 14 14 14 14 14 14 15 15
16 16 16 15 15 15 16 16 16 17 18 18 17 15 14 14 15 14 14 14 14 14 14 14 14 15 15 15 15 15 15 15 15 16 15 15 15 15 15 15 15 16 15 16
18 18 18 17 17 17 17 17 18 18 18 18 17 17 15 15 15 15 15 15 16 15 15 15 15 16 16 16 16 16 16 15 16 16 16 15 15 16 16 16 16 16 16 16
19 19 19 18 18 19 19 19 19 19 19 18 17 17 17 17 17 17 17 17 17 16 16 15 16 16 16 16 16 17 16 16 17 17 16 16 16 16 16 16 16 16 16 17
20 20 20 19 19 19 20 18 19 18 18 19 19 18 19 19 19 19 18 17 17 17 17 16 17 17 17 17 17 17 17 17 17 17 17 17 17 17 16 16 16 16 17 17
21 21 21 21 21 22 18 19 19 19 20 20 20 20 21 20 20 19 19 19 19 18 18 18 18 19 19 18 19 19 19 18 18 18 18 18 18 17 17 17 17 17 17 18
22 22 22 22 23 23 20 20 19 20 21 20 20 20 21 20 20 21 21 20 19 19 20 20 21 21 21 20 20 20 20 19 19 19 19 19 19 19 18 18 18 18 18 18
25 24 24 24 25 24 21 20 20 21 22 21 22 22 22 22 22 22 22 22 22 22 22 22 23 23 22 21 21 21 20 20 20 20 20 20 20 19 19 19 19 19 19 19
26 26 26 25 25 24 23 22 22 23 23 22 23 23 23 23 24 23 24 25 25 25 24 24 24 24 23 23 23 22 22 22 22 22 21 21 21 21 21 21 21 21 21 21
27 27 27 27 27 25 25 24 24 24 24 24 24 24 25 25 25 25 26 26 26 26 26 25 25 25 25 24 24 24 24 24 24 24 23 23 22 23 23 23 22 22 22 22
29 28 29 29 29 28 27 26 26 26 26 27 27 26 26 27 27 27 27 27 27 27 27 27 27 27 26 26 25 25 25 25 25 25 25 25 24 24 24 24 24 24 24 24
31 30 31 31 30 30 29 29 28 28 28 28 29 29 28 28 29 30 29 29 29 29 29 29 29 28 28 28 27 27 27 27 27 26 27 26 26 26 26 26 26 26 26 27
32 33 33 33 32 32 31 30 30 31 31 30 31 32 32 31 31 31 31 31 31 31 31 31 30 30 30 29 29 29 29 29 28 28 28 28 28 28 28 28 28 28 28 28
33 34 34 33 33 33 32 32 32 33 34 34 34 34 33 33 32 32 32 32 32 32 32 32 32 32 31 31 30 30 30 30 30 30 30 30 30 30 30 30 30 30 30 30
Wind_Direction
273 275 279 289 292 296 304 313 320 319 316 313 319 320 317 323 328 335 330 327 332 332 325 319 317 317 313 310 311 314 314 313 313 312 309 307 309 303 300 294 287 283 283 278
273 275 277 281 284 286 294 299 303 308 310 311 315 323 317 321 330 337 334 331 330 329 325 320 320 318 314 309 308 311 313 312 311 309 307 305 306 306 304 296 285 280 282 280
273 273 275 276 279 280 286 293 297 300 302 305 307 312 313 317 323 329 332 338 334 328 323 321 319 314 310 308 306 307 306 306 308 305 302 298 298 299 299 296 294 290 285 281
271 269 269 273 274 278 279 284 289 293 292 294 296 303 309 307 315 324 332 335 331 323 318 316 313 311 307 307 306 302 300 300 301 299 297 296 296 297 296 294 291 288 286 283
271 267 267 268 269 269 274 277 282 290 291 288 287 292 307 302 313 322 325 327 326 321 314 313 311 309 307 304 302 300 299 302 301 296 294 294 294 293 293 292 289 286 285 282
268 267 268 267 265 264 268 274 277 284 288 283 282 286 298 303 312 317 322 326 323 318 310 310 309 309 308 303 302 301 300 302 303 301 298 295 294 292 290 290 290 288 286 284
268 268 268 265 263 262 264 269 273 277 279 277 277 281 292 293 301 307 315 320 318 312 305 302 302 303 304 304 305 303 301 300 300 301 300 297 296 294 291 288 288 286 283 285
271 269 265 264 265 263 262 267 271 272 273 276 277 282 291 292 297 302 307 312 311 308 305 302 298 300 300 301 304 303 300 298 297 298 298 297 296 296 296 293 288 284 281 282
270 266 261 261 260 262 264 268 271 273 274 275 279 285 284 285 288 293 299 304 308 310 308 304 300 298 297 298 300 301 301 299 297 298 296 297 298 298 297 297 292 285 280 280
271 266 260 258 257 260 264 268 269 271 275 276 278 283 291 281 280 289 295 300 304 308 309 307 303 299 296 296 294 295 297 297 295 294 295 297 298 297 296 294 292 289 286 283
268 264 259 259 261 261 263 266 269 270 273 275 274 274 280 280 283 290 296 297 302 304 304 304 302 300 298 296 293 292 293 295 295 291 289 293 295 294 294 294 291 288 287 285
264 262 260 259 260 260 262 264 266 267 270 269 271 273 274 277 282 285 288 291 295 298 302 302 301 298 296 294 293 291 290 291 290 289 289 290 291 292 291 291 290 289 287 285
265 262 262 260 258 260 263 263 265 265 266 268 272 278 274 275 278 281 282 287 292 295 298 298 298 296 293 293 293 292 289 288 288 289 291 290 290 289 289 288 288 287 285 283
265 268 267 266 265 264 263 262 263 264 266 270 274 276 272 273 273 274 279 282 287 292 296 295 293 291 291 292 292 292 291 290 288 288 290 290 291 290 290 289 288 285 283 282
263 264 265 265 264 264 263 262 260 262 265 270 272 273 274 274 271 273 279 282 286 289 293 295 294 290 290 291 290 290 291 292 291 290 290 290 289 290 289 288 287 285 284 283
260 262 264 262 263 264 264 263 264 268 268 269 270 272 273 272 271 276 279 282 285 286 290 292 294 292 291 291 290 291 291 291 292 291 291 289 290 291 290 288 286 284 284 284
257 260 262 263 262 262 262 266 267 267 266 268 269 270 269 269 271 275 278 280 281 282 286 290 291 291 290 289 290 289 288 287 288 289 289 288 288 287 287 287 286 283 283 284
256 259 263 265 263 263 264 265 266 265 265 268 269 268 269 269 268 271 274 279 280 280 284 288 288 288 287 286 287 286 285 285 285 285 286 286 286 286 286 287 286 284 284 285
256 258 261 262 264 265 264 264 266 266 265 266 267 269 270 268 267 268 273 278 280 282 285 288 287 287 286 285 284 284 284 284 284 284 284 283 282 283 285 286 285 283 284 284
255 258 260 262 264 265 265 264 264 265 266 267 268 268 269 269 270 272 274 277 278 280 283 285 284 283 283 282 281 282 283 283 284 285 286 284 282 282 283 285 283 282 282 283
254 257 260 262 264 266 267 266 265 265 269 269 270 271 270 271 272 274 273 273 275 277 280 282 282 282 281 280 279 279 280 282 282 284 284 284 283 283 282 282 282 281 281 282
254 256 258 262 265 266 269 268 266 266 268 269 270 272 272 272 272 273 273 274 275 277 279 279 279 279 279 279 279 278 278 279 280 281 282 281 281 281 281 280 280 280 280 282
256 258 260 261 263 266 267 269 269 267 268 268 270 271 271 271 271 273 273 273 274 275 277 277 277 277 277 278 278 278 278 279 279 279 279 279 279 280 279 279 279 278 279 281
256 257 259 260 262 264 265 266 267 268 268 268 268 270 273 273 273 273 274 274 274 275 276 276 276 276 276 277 276 276 276 277 278 278 278 278 278 278 278 278 278 279 280 281
256 257 259 260 261 263 264 266 266 266 268 269 271 272 273 274 272 272 274 275 275 275 275 275 274 275 276 276 275 275 276 276 277 277 277 276 277 277 278 278 279 279 281 281
257 258 259 260 261 262 263 264 265 266 267 270 271 271 272 273 273 273 273 274 275 274 275 275 275 275 275 275 274 274 275 275 276 276 276 275 276 277 278 278 278 278 280 281
Height
5872 5872 5871 5870 5869 5869 5868 5867 5866 5865 5864 5863 5862 5861 5860 5859 5859 5858 5857 5856 5855 5854 5853 5852 5852 5851 5850 5849 5848 5847 5846 5845 5844 5843 5842 5841 5840 5840 5839 5838 5838 5838 5837 5837
5870 5869 5869 5868 5867 5866 5865 5865 5864 5864 5862 5862 5861 5860 5859 5858 5857 5856 5855 5854 5853 5853 5852 5851 5850 5849 5848 5847 5846 5845 5845 5844 5843 5842 5841 5840 5839 5838 5837 5836 5836 5836 5835 5835
5867 5867 5866 5865 5865 5864 5863 5863 5862 5862 5861 5860 5859 5859 5857 5856 5855 5855 5854 5853 5852 5851 5850 5849 5848 5847 5847 5846 5845 5844 5843 5842 5841 5840 5839 5838 5837 5836 5835 5835 5834 5833 5833 5833
5864 5864 5863 5863 5862 5861 5861 5861 5860 5859 5859 5858 5857 5857 5856 5855 5854 5853 5852 5851 5850 5849 5848 5847 5847 5846 5845 5844 5843 5842 5841 5840 5839 5838 5837 5836 5835 5834 5833 5833 5832 5831 5831 5830
5861 5860 5860 5859 5859 5859 5859 5858 5858 5857 5856 5856 5855 5854 5855 5853 5852 5851 5851 5849 5848 5847 5847 5846 5845 5844 5843 5842 5841 5840 5839 5837 5836 5835 5834 5833 5833 5832 5831 5830 5830 5829 5828 5827
5857 5856 5856 5856 5856 5856 5856 5856 5855 5855 5854 5854 5853 5852 5852 5851 5850 5849 5848 5847 5846 5845 5845 5844 5843 5842 5841 5840 5838 5837 5836 5835 5834 5833 5832 5831 5830 5829 5828 5828 5827 5826 5825 5825
5853 5853 5853 5853 5852 5853 5853 5853 5853 5852 5851 5851 5850 5849 5850 5848 5847 5846 5846 5845 5844 5843 5842 5841 5840 5839 5838 5837 5836 5835 5834 5833 5831 5830 5829 5828 5827 5826 5826 5825 5824 5823 5822 5821
5849 5850 5849 5849 5849 5849 5849 5850 5850 5849 5848 5848 5847 5846 5847 5845 5844 5843 5843 5843 5842 5841 5840 5839 5838 5837 5836 5835 5833 5832 5831 5830 5829 5828 5827 5826 5825 5824 5822 5821 5820 5819 5819 5818
5845 5846 5846 5845 5845 5846 5846 5845 5846 5845 5844 5844 5843 5843 5842 5841 5841 5840 5840 5840 5839 5838 5837 5836 5835 5834 5833 5832 5831 5829 5828 5827 5826 5825 5824 5823 5821 5820 5819 5818 5817 5816 5815 5815
5841 5842 5842 5841 5842 5842 5842 5842 5842 5841 5840 5840 5840 5840 5839 5838 5837 5837 5837 5836 5836 5835 5834 5833 5831 5830 5830 5828 5827 5826 5825 5824 5823 5822 5821 5819 5818 5817 5816 5814 5813 5812 5812 5811
5837 5838 5838 5838 5838 5838 5839 5838 5837 5837 5837 5836 5836 5839 5836 5835 5834 5834 5833 5833 5832 5832 5831 5830 5829 5828 5826 5825 5824 5823 5822 5821 5820 5818 5817 5816 5815 5813 5812 5811 5810 5809 5808 5807
5833 5833 5833 5834 5834 5834 5834 5834 5833 5834 5833 5832 5832 5836 5832 5832 5831 5830 5829 5829 5829 5828 5827 5826 5825 5824 5823 5822 5821 5820 5819 5817 5816 5815 5814 5812 5811 5809 5808 5807 5806 5805 5803 5802
5828 5829 5829 5830 5832 5830 5829 5829 5829 5829 5829 5828 5828 5831 5829 5828 5827 5827 5826 5826 5826 5825 5824 5823 5822 5821 5820 5818 5817 5816 5815 5813 5812 5811 5809 5808 5807 5805 5804 5802 5801 5800 5799 5798
5824 5824 5825 5826 5826 5825 5825 5825 5825 5825 5824 5824 5824 5825 5824 5824 5823 5823 5823 5822 5822 5821 5820 5819 5818 5817 5816 5814 5813 5811 5810 5809 5807 5806 5805 5803 5802 5800 5799 5798 5796 5795 5794 5793
5819 5820 5820 5820 5820 5820 5821 5821 5820 5820 5820 5820 5820 5820 5820 5819 5818 5819 5818 5818 5818 5817 5816 5815 5814 5812 5811 5810 5808 5807 5806 5804 5803 5801 5800 5798 5797 5796 5794 5793 5791 5790 5789 5788
5814 5814 5814 5815 5815 5815 5815 5816 5816 5815 5815 5815 5815 5815 5815 5814 5814 5814 5814 5813 5813 5812 5811 5810 5809 5808 5806 5805 5803 5802 5801 5799 5798 5796 5795 5793 5792 5790 5789 5788 5786 5785 5784 5783
5808 5809 5809 5809 5810 5810 5810 5811 5811 5810 5810 5810 5809 5810 5809 5809 5808 5808 5808 5808 5808 5807 5806 5805 5804 5803 5802 5800 5798 5797 5795 5794 5793 5791 5790 5788 5787 5785 5784 5782 5781 5780 5779 5778
5802 5802 5803 5803 5804 5804 5808 5806 5805 5805 5804 5804 5804 5803 5803 5803 5803 5803 5803 5803 5802 5802 5801 5800 5798 5797 5796 5795 5793 5792 5790 5789 5787 5786 5784 5783 5781 5780 5779 5777 5776 5775 5773 5772
5796 5796 5796 5797 5796 5797 5800 5799 5799 5798 5798 5798 5798 5798 5798 5797 5797 5797 5797 5797 5796 5796 5795 5794 5793 5791 5790 5788 5787 5785 5784 5783 5781 5780 5779 5777 5776 5774 5773 5772 5770 5769 5768 5767
5789 5789 5790 5790 5790 5790 5794 5793 5792 5792 5792 5792 5792 5792 5792 5791 5792 5792 5791 5791 5790 5789 5788 5787 5786 5784 5783 5781 5780 5779 5777 5776 5775 5774 5772 5771 5770 5769 5767 5766 5764 5763 5762 5761
5782 5782 5782 5783 5782 5783 5786 5786 5786 5786 5787 5786 5785 5785 5785 5785 5785 5785 5784 5783 5783 5782 5781 5780 5778 5777 5776 5774 5773 5772 5771 5769 5768 5767 5766 5765 5763 5762 5761 5760 5759 5757 5756 5755
5773 5774 5775 5775 5776 5779 5778 5778 5779 5779 5778 5778 5777 5777 5777 5777 5777 5776 5776 5775 5775 5774 5773 5772 5770 5769 5768 5766 5765 5764 5763 5762 5761 5760 5759 5758 5757 5756 5754 5753 5752 5751 5750 5749
5765 5766 5767 5768 5770 5770 5769 5769 5769 5769 5769 5769 5769 5769 5769 5768 5768 5768 5768 5767 5766 5765 5764 5763 5762 5761 5760 5758 5757 5756 5756 5755 5754 5753 5752 5751 5750 5748 5747 5746 5745 5744 5743 5742
5756 5756 5757 5758 5759 5760 5760 5760 5760 5760 5760 5760 5760 5760 5759 5759 5759 5758 5758 5758 5757 5756 5755 5754 5753 5752 5751 5750 5749 5748 5747 5746 5745 5744 5743 5742 5741 5740 5739 5738 5737 5736 5735 5734
5746 5746 5747 5748 5750 5750 5751 5751 5751 5751 5751 5751 5751 5750 5750 5750 5749 5749 5748 5748 5747 5746 5745 5745 5744 5743 5742 5741 5740 5739 5738 5737 5736 5735 5735 5734 5733 5732 5731 5730 5729 5727 5726 5725
5736 5736 5737 5738 5739 5740 5741 5741 5741 5741 5741 5741 5741 5741 5740 5740 5740 5739 5739 5738 5737 5736 5735 5734 5733 5732 5732 5731 5730 5729 5728 5728 5727 5726 5725 5724 5723 5722 5721 5720 5719 5718 5717 5716